Preview of NWS' New Version of Forecast
This preview is not operational and should not be used for support decisions.

Regional Weather Roundup (RWR)

Issued by Lake Charles, LA (LCH)

                            
000
ASUS44 KLCH 170510
RWRLCH
REGIONAL WEATHER ROUNDUP
NATIONAL WEATHER SERVICE LAKE CHARLES LA
1100 PM CST SUN DEC 16 2018

Note: "fair" indicates few or no clouds below 12,000 feet with no
significant weather and/or obstructions to visibility.


ACROSS SOUTHEAST TEXAS
  
CITY           SKY/WX    TMP DP  RH WIND       PRES   REMARKS
BEAUMONT       FAIR      50  47  89 W3        30.28F                  
BEAUMONT CITY  NOT AVBL                                               
ORANGE         FAIR      50  50 100 CALM      30.29F                  
JASPER         FAIR      42  42 100 CALM      30.29F FOG              
$$

ACROSS CENTRAL LOUISIANA
  
CITY           SKY/WX    TMP DP  RH WIND       PRES   REMARKS
LEESVILLE      CLOUDY    50  49  97 CALM      30.26S                  
FULLERTON      FAIR      48  48 100 CALM      30.25R                  
ALEXANDRIA INT FAIR      50  48  93 E3        30.24F                  
ESLER FIELD    FOG       47  47 100 CALM      30.25F VSB 1/2          
DERIDDER       FAIR      48  47  95 CALM      30.30S                  
OAKDALE        FAIR      46  44  94 CALM      30.27F                  
OPELOUSAS      FAIR      47  46  97 CALM      30.28S                  
$$

ACROSS SOUTHWEST AND SOUTH CENTRAL LOUISIANA
  
CITY           SKY/WX    TMP DP  RH WIND       PRES   REMARKS
DEQUINCY       FAIR      48  47  97 CALM      30.29R                  
SULPHUR        FAIR      51  49  93 CALM      30.30S                  
LAKE CHARLES   FAIR     N/A N/A N/A CALM      30.30R                  
CHENNAULT INT  FAIR      51  49  96 CALM      30.30R                  
CAMERON PHI    CLEAR     52  52 100 CALM      30.27F                  
GRAND CHENIER  CLEAR     52  50  93 SE6       30.28F                  
JENNINGS       FAIR      50  47  90 S5        30.28F                  
LAFAYETTE      FAIR      48  47  96 SW6       30.29S                  
NEW IBERIA     FAIR      45  43  93 S5        30.29F                  
ABBEVILLE      FAIR      46  46 100 MISG      30.29S                  
PATTERSON      FAIR      43  43 100 CALM      30.29F FOG              
SALT POINT       N/A    N/A N/A N/A CALM      30.28F                  
$$

SELECTED SITES ACROSS THE REGION
  
CITY           SKY/WX    TMP DP  RH WIND       PRES   REMARKS
HOUSTON BUSH   CLOUDY    51  50  96 CALM      30.29S                  
HOUSTON HOBBY  MOCLDY    53  49  86 CALM      30.29S                  
GALVESTON      FAIR      56  54  93 S5        30.30S                  
COLLEGE STAT   CLOUDY    51  45  79 CALM      30.28R                  
CONROE         CLOUDY    47  47 100 CALM      30.29S                  
HUNTSVILLE     CLOUDY    50  47  89 S6        30.27S                  
LUFKIN         CLOUDY    48  48 100 E3        30.26F                  
SHREVEPORT     CLOUDY    52  50  93 CALM      30.25S                  
MONROE         FAIR      48  47  96 CALM      30.27S                  
NATCHEZ MS     FAIR      46  45  96 CALM      30.26F                  
BATON ROUGE    FAIR      45  44  97 E3        30.26F                  
N.O. INTL ARPT MOCLDY    49  48  97 CALM      30.27F                  
SLIDELL        FAIR      43  41  93 CALM      30.27F                  
$$

MARINE REPORTS
  
STATION/POSITION TIME  SKY/WX   TEMP    WIND        PRES    VSBY
                                AIR SEA DIR/SP/G
                 (UTC)          (F)     (DEG/KT/KT) (MB)    (MI)
BUOY 30 S HIGH I 0450            58 62  170/  4/  6 1026.1F
WVE H/P(F/S)=  1/ 4

SEA RIM ST PARK  0500            54     250/  6/  6 1026.4R
PORT ARTHUR      0442            53 54  130/  2/  2 1025.5F
SABINE PASS N    0442            52 59     CALM     1026.9F
TEXAS POINT      NOT AVBL
CALCASIEU PASS   0442            54 56  300/  4/  5 1024.5R
LK CHARLES BEACH 0442            54 53              1025.4R
MARSH ISLAND     0400            51                   N/A
FRESH WATER LOCK 0442            50 58  120/  4/  5 1025.6F
AMERADA PASS     0442            49 48   CALM  /  1 1025.8F
$$